Location: Unspecified
(0.0000°N, 0.0000°E)
Time: 01:48:37
(UTC+02:00)

Palapa 6 Rocket - Visible Passes

Search period start: 30 September 2016 00:00
Search period end: 10 October 2016 00:00
Orbit: 485 x 1222 km, 22.7° (Epoch: 29 September)

Date Brightness Start Highest point End Pass type
(mag) Time Alt. Az. Time Alt. Az. Time Alt. Az.
30 Sep 5.1 06:54:53 10° NNW 06:58:17 19° NNE 07:01:20 10° ENE visible
30 Sep 4.7 21:25:43 10° WSW 21:33:15 62° NNW 21:36:12 40° NE visible
30 Sep 6.7 23:16:42 10° WNW 23:18:08 15° WNW 23:18:08 15° WNW visible
01 Oct 4.9 06:40:53 12° NNW 06:44:27 23° NNE 06:47:58 10° ENE visible
01 Oct 4.8 21:11:45 10° W 21:19:01 55° NNW 21:23:13 28° NE visible
01 Oct 6.5 23:02:50 10° WNW 23:05:10 17° NW 23:05:10 17° NW visible
02 Oct 4.7 06:27:57 19° NNW 06:30:36 28° NNE 06:34:31 10° E visible
02 Oct 5.0 20:57:50 10° W 21:04:48 49° NNW 21:10:14 20° NE visible
02 Oct 6.3 22:49:01 10° WNW 22:52:09 19° NW 22:52:09 19° NW visible
03 Oct 4.5 06:15:00 28° NNW 06:16:42 35° NNE 06:21:00 10° E visible
03 Oct 5.1 20:43:59 10° W 20:50:38 43° NNW 20:57:10 14° NE visible
03 Oct 6.2 22:35:16 10° WNW 22:39:06 19° NNW 22:39:06 19° NNW visible
04 Oct 4.2 06:02:03 40° N 06:02:47 42° NNE 06:07:25 10° E visible
04 Oct 5.3 20:30:13 10° W 20:36:29 38° NNW 20:43:38 10° NE visible
04 Oct 6.2 22:21:36 10° NW 22:25:59 19° NNW 22:25:59 19° NNW visible
05 Oct 4.1 05:49:06 50° NNE 05:49:06 50° NNE 05:53:47 10° E visible
05 Oct 5.4 20:16:30 10° W 20:22:22 33° NNW 20:29:08 10° NE visible
05 Oct 6.2 22:07:59 10° NW 22:12:41 17° NNW 22:12:50 17° N visible
06 Oct 4.4 05:36:06 48° ENE 05:36:06 48° ENE 05:40:06 10° ESE visible
06 Oct 4.1 07:18:22 10° W 07:23:35 38° SSW 07:27:54 10° SE visible
06 Oct 5.5 20:02:51 10° WNW 20:08:18 29° NNW 20:14:36 10° NE visible
06 Oct 6.2 21:54:27 10° NW 21:58:39 16° N 21:59:38 15° N visible
07 Oct 4.9 05:23:05 38° E 05:23:05 38° E 05:26:21 10° ESE visible
07 Oct 4.4 07:05:01 13° W 07:09:35 34° SSW 07:14:00 10° SE visible
07 Oct 6.2 21:41:02 10° NW 21:44:39 14° N 21:46:23 13° N visible
08 Oct 5.5 05:10:01 29° ESE 05:10:01 29° ESE 05:12:33 10° ESE visible
08 Oct 4.6 06:51:56 17° WSW 06:55:35 31° SSW 07:00:06 10° SE visible
08 Oct 6.3 21:27:42 10° NNW 21:30:41 13° N 21:33:06 11° NNE visible
09 Oct 5.9 04:56:55 21° ESE 04:56:55 21° ESE 04:58:42 10° ESE visible
09 Oct 4.8 06:38:49 21° WSW 06:41:33 29° SSW 06:46:10 10° SE visible
09 Oct 6.3 21:14:36 10° NNW 21:16:44 11° N 21:18:57 10° NNE visible
